CW8095 Weather Reports


time (UTC)temp
C
wind
direction
speed
KPH
gust
KPH
rain 1hr
cm
rain 24hr
cm
rain mn
cm
humidity
%
barometer
mb
20260508023021 18 159 0.0 3.2 0.00 0.00 0.00 60 1015.2
20260508022016 18 159 1.6 3.2 0.00 0.00 0.00 59 1015.2
20260508021027 18 159 0.0 1.6 0.00 0.00 0.00 58 1015.4
20260508020022 18 159 0.0 1.6 0.00 0.00 0.00 57 1015.2
20260508015018 18 0.0 0.0 0.00 0.00 0.00 56 1015.1
20260508014028 19 0.0 0.0 0.00 0.00 0.00 56 1015.2
20260508013024 19 159 0.0 1.6 0.00 0.00 0.00 55 1015.1
20260508012039 19 159 0.0 1.6 0.00 0.00 0.00 55 1015.1
20260508011030 20 159 0.0 1.6 0.00 0.00 0.00 54 1015.1
20260508010045 20 158 0.0 1.6 0.00 0.00 0.00 53 1015.1
20260508005021 20 158 1.6 3.2 0.00 0.00 0.00 53 1015.3
20260508004017 20 148 0.0 4.8 0.00 0.00 0.00 53 1015.2
20260508003047 20 141 0.0 3.2 0.00 0.00 0.00 52 1015.2
20260508002022 21 141 1.6 4.8 0.00 0.00 0.00 51 1015.2
20260508001018 21 139 1.6 4.8 0.00 0.00 0.00 50 1015.5
20260508000029 21 148 3.2 9.7 0.00 0.00 0.00 49 1015.6
20260507235024 21 132 1.6 4.8 0.00 0.00 0.00 48 1015.4
20260507234020 22 138 1.6 4.8 0.00 0.00 0.00 48 1015.4
20260507233015 22 143 3.2 6.4 0.00 0.00 0.00 47 1015.3
20260507232026 22 130 3.2 6.4 0.00 0.03 0.00 47 1015.5
20260507231021 22 140 3.2 9.7 0.00 0.28 0.00 46 1015.6
20260507230017 22 141 4.8 9.7 0.00 0.28 0.00 46 1015.7
20260507225027 22 125 3.2 6.4 0.00 0.28 0.00 45 1015.6
20260507224023 22 134 3.2 9.7 0.00 0.28 0.00 45 1015.7
20260507223018 23 134 3.2 6.4 0.00 0.28 0.00 44 1015.8
20260507222029 23 133 3.2 9.7 0.00 0.28 0.00 44 1016.1
20260507221024 23 116 3.2 6.4 0.00 0.28 0.00 44 1015.9
20260507220040 23 142 3.2 6.4 0.00 0.28 0.00 42 1015.8
20260507215016 24 138 4.8 11.3 0.00 0.28 0.00 42 1015.8
20260507214046 24 131 3.2 12.9 0.00 0.28 0.00 42 1016.0
20260507213022 24 124 4.8 11.3 0.00 0.28 0.00 42 1016.1
20260507212017 25 136 3.2 6.4 0.00 0.28 0.00 41 1016.4
20260507211108 25 140 3.2 11.3 0.00 0.28 0.00 41 1016.7
20260507210043 25 147 3.2 11.3 0.00 0.28 0.00 39 1016.8
20260507205059 26 142 3.2 6.4 0.00 0.28 0.00 37 1016.6
20260507204029 26 112 1.6 4.8 0.00 0.28 0.00 34 1016.7
20260507203025 27 93 3.2 6.4 0.00 0.28 0.00 33 1016.6
20260507202020 27 87 4.8 9.7 0.00 0.28 0.00 33 1016.3
20260507201016 27 60 6.4 12.9 0.00 0.28 0.00 33 1016.5
20260507200026 27 91 3.2 6.4 0.00 0.28 0.00 34 1016.8
20260507195021 27 60 3.2 11.3 0.00 0.28 0.00 33 1016.9
20260507194017 27 74 4.8 9.7 0.00 0.28 0.00 34 1017.0
20260507193027 27 281 3.2 4.8 0.00 0.28 0.00 33 1017.3
20260507192022 27 80 6.4 12.9 0.00 0.28 0.00 34 1017.7
20260507191018 27 62 4.8 9.7 0.00 0.28 0.00 34 1017.9
20260507190028 26 90 3.2 9.7 0.00 0.28 0.00 36 1018.1
20260507185024 27 80 6.4 12.9 0.00 0.28 0.00 36 1018.0
20260507184040 26 82 4.8 11.3 0.00 0.28 0.00 38 1017.9
20260507183030 25 64 6.4 12.9 0.00 0.28 0.00 38 1017.8
20260507182025 25 78 8.0 16.1 0.00 0.28 0.00 39 1017.7
20260507181020 25 76 4.8 14.5 0.00 0.28 0.00 39 1018.1
20260507180015 25 57 6.4 11.3 0.00 0.28 0.00 39 1018.0
20260507175026 25 58 6.4 16.1 0.00 0.28 0.00 39 1018.1
20260507174022 24 71 4.8 12.9 0.00 0.28 0.00 42 1018.3
20260507173017 25 60 8.0 16.1 0.00 0.28 0.00 40 1018.4
20260507172027 25 69 6.4 16.1 0.00 0.28 0.00 39 1018.7
20260507171023 25 31 3.2 11.3 0.00 0.28 0.00 41 1018.8
20260507170018 25 23 4.8 12.9 0.00 0.28 0.00 41 1019.2
20260507165029 25 359 4.8 14.5 0.00 0.28 0.00 40 1019.6
20260507164024 25 356 4.8 11.3 0.00 0.28 0.00 42 1019.6
20260507163020 24 100 4.8 11.3 0.00 0.28 0.00 43 1019.8
20260507162015 25 79 6.4 12.9 0.00 0.28 0.00 43 1019.8
20260507161026 24 74 6.4 14.5 0.00 0.28 0.00 44 1019.9
20260507160021 23 46 4.8 12.9 0.00 0.28 0.00 46 1019.8
20260507155017 23 86 4.8 11.3 0.00 0.28 0.00 47 1019.6
20260507154027 23 74 8.0 17.7 0.00 0.28 0.00 45 1019.6
20260507153022 22 69 6.4 12.9 0.00 0.28 0.00 49 1019.9
20260507152017 22 68 6.4 11.3 0.00 0.28 0.00 49 1020.0
20260507151028 22 59 3.2 9.7 0.00 0.28 0.00 51 1020.0
20260507150024 21 86 4.8 11.3 0.00 0.28 0.00 53 1020.1
20260507145019 21 49 4.8 9.7 0.00 0.28 0.00 53 1020.2
20260507144029 21 332 3.2 6.4 0.00 0.28 0.00 54 1020.4
20260507143025 21 73 3.2 6.4 0.00 0.28 0.00 53 1020.4
20260507142040 22 47 3.2 6.4 0.00 0.28 0.00 51 1020.3
20260507141016 23 44 4.8 11.3 0.00 0.28 0.00 46 1020.2
20260507140046 24 21 3.2 6.4 0.00 0.28 0.00 48 1020.5
20260507135021 21 18 3.2 9.7 0.00 0.28 0.00 57 1020.5
20260507134017 18 43 1.6 4.8 0.00 0.28 0.00 66 1020.5
20260507133027 16 308 0.0 1.6 0.00 0.28 0.00 74 1020.5
20260507132023 16 271 0.0 3.2 0.00 0.28 0.00 73 1020.5
20260507131018 16 256 0.0 3.2 0.00 0.28 0.00 73 1020.8
20260507130029 15 253 1.6 4.8 0.00 0.28 0.00 80 1020.6
20260507125024 14 249 0.0 1.6 0.00 0.28 0.00 83 1020.7
20260507124020 12 232 0.0 1.6 0.00 0.28 0.00 86 1020.7
20260507121543 11 156 0.0 3.2 0.00 0.28 0.00 88 1020.5
20260507120537 11 0.0 0.0 0.00 0.28 0.00 88 1020.7
20260507115528 11 240 0.0 1.6 0.00 0.28 0.00 89 1020.7
20260507114522 11 255 0.0 3.2 0.00 0.28 0.00 89 1020.5
20260507113516 11 264 0.0 1.6 0.00 0.28 0.00 89 1020.3
20260507112526 11 265 0.0 1.6 0.00 0.28 0.00 88 1020.0
20260507111521 11 265 0.0 1.6 0.00 0.28 0.00 87 1019.9
20260507110530 11 261 0.0 1.6 0.00 0.28 0.00 87 1019.9
20260507105527 11 239 0.0 1.6 0.00 0.28 0.00 87 1019.6
20260507104523 11 258 0.0 1.6 0.00 0.28 0.00 86 1019.4
20260507103531 11 249 0.0 1.6 0.00 0.28 0.00 86 1019.1
20260507102526 11 239 0.0 3.2 0.00 0.28 0.00 85 1018.8
20260507101522 11 0.0 0.0 0.00 0.28 0.00 85 1018.9
20260507100519 11 235 0.0 1.6 0.00 0.28 0.00 85 1018.5
20260507095530 11 236 0.0 3.2 0.00 0.28 0.00 84 1018.6
20260507094527 11 20 1.6 4.8 0.00 0.28 0.00 84 1018.2
20260507093523 11 6 1.6 4.8 0.00 0.28 0.00 83 1018.1
20260507092522 11 48 1.6 4.8 0.00 0.28 0.00 82 1018.0
20260507091520 12 76 1.6 3.2 0.00 0.28 0.00 81 1018.2
20260507090525 12 25 3.2 6.4 0.00 0.28 0.00 81 1018.2
20260507085530 12 27 3.2 6.4 0.00 0.28 0.00 81 1018.0
20260507084518 12 5 3.2 6.4 0.00 0.28 0.00 80 1017.8
20260507083520 12 52 4.8 9.7 0.00 0.28 0.00 80 1017.5
20260507082519 12 70 3.2 9.7 0.00 0.28 0.00 79 1017.7
20260507081528 13 33 4.8 12.9 0.00 0.28 0.00 79 1017.8
20260507080549 13 8 3.2 6.4 0.00 0.28 0.00 80 1017.8
20260507075530 13 27 3.2 9.7 0.00 0.28 0.00 78 1017.8
20260507074044 13 34 4.8 11.3 0.00 0.28 0.00 78 1017.6
20260507073028 13 11 6.4 12.9 0.00 0.28 0.00 78 1017.3
20260507072033 13 73 4.8 9.7 0.00 0.28 0.00 79 1017.1
20260507071039 13 60 6.4 9.7 0.00 0.28 0.00 79 1016.9
20260507070030 14 66 6.4 11.3 0.00 0.28 0.00 78 1017.0
20260507065024 14 62 6.4 12.9 0.00 0.28 0.00 76 1016.9
20260507064023 15 53 9.7 16.1 0.00 0.28 0.00 75 1017.0
20260507063028 15 52 9.7 16.1 0.00 0.28 0.00 75 1017.1
20260507062024 15 58 8.0 17.7 0.00 0.28 0.00 76 1017.0
20260507061034 15 56 6.4 12.9 0.00 0.28 0.00 77 1017.0
20260507060020 15 61 8.0 12.9 0.00 0.28 0.00 77 1016.8
20260507055025 15 42 8.0 16.1 0.00 0.28 0.00 76 1016.9
20260507054102 15 60 8.0 14.5 0.00 0.28 0.00 76 1017.0
20260507053037 15 65 9.7 14.5 0.00 0.28 0.00 77 1017.0
20260507052045 15 62 8.0 14.5 0.00 0.28 0.00 77 1017.0
20260507051026 15 59 6.4 12.9 0.00 0.28 0.00 77 1017.0
20260507050041 15 56 6.4 12.9 0.00 0.28 0.28 78 1017.0
20260507045023 15 55 8.0 12.9 0.00 0.28 0.28 78 1017.0
20260507044518 15 55 6.4 12.9 0.00 0.28 0.28 78 1017.1
20260507043540 15 63 8.0 12.9 0.00 0.28 0.28 78 1017.2
20260507042527 15 59 8.0 14.5 0.00 0.28 0.28 78 1017.3
20260507041530 15 59 6.4 12.9 0.00 0.28 0.28 78 1017.4
20260507040531 15 61 8.0 12.9 0.00 0.28 0.28 78 1017.3
20260507035526 15 69 9.7 20.9 0.00 0.28 0.28 79 1017.3
20260507034601 15 66 8.0 16.1 0.00 0.28 0.28 79 1017.4
20260507033516 15 62 8.0 17.7 0.00 0.28 0.28 79 1017.3
20260507032530 15 68 8.0 14.5 0.00 0.28 0.28 79 1017.2
20260507031609 15 80 3.2 6.4 0.00 0.28 0.28 80 1017.2
20260507030604 15 65 1.6 4.8 0.00 0.28 0.28 81 1017.1
20260507025518 15 39 3.2 9.7 0.00 0.28 0.28 81 1016.9
20260507024528 15 74 4.8 9.7 0.00 0.28 0.28 80 1016.8